When you browse on this site, cookies collect data to enhance your experience and personalize the content and advertising you see.
Visit our Privacy Policy to learn more. By continuing to use the site, you agree to this use of cookies and data.
  • Em Portugal
  • Lista de países
  • Para 7 dias
  • Temperatura da água
  • Mapas de satélite
  • Mapa do tempo
  • Widgets de tempo
  • user-avatar
    Iniciar Sessão

    Previsão horária em Belém

    Hoje, 17 Dezembro, Segunda-feira

    Tempo Temperatura Precipitação Vento Pressão Humidade
    00:00 +25°C° 0.6 mm 1 m/s 760 mmHg 95%
    01:00 +25°C° 0.1 mm 1 m/s 759 mmHg 95%
    02:00 +25°C° 0.1 mm 1 m/s 759 mmHg 96%
    03:00 +25°C° 0.1 mm 1 m/s 759 mmHg 96%
    04:00 +25°C° 0 mm 1 m/s 759 mmHg 96%
    05:00 +24°C° 0 mm 1 m/s 759 mmHg 96%
    06:00 +24°C° 0 mm 1 m/s 759 mmHg 97%
    07:00 +26°C° 0 mm 1 m/s 759 mmHg 93%
    08:00 +27°C° 0 mm 1 m/s 759 mmHg 89%
    09:00 +28°C° 0 mm 2 m/s 760 mmHg 85%
    10:00 +29°C° 0.2 mm 2 m/s 760 mmHg 78%
    11:00 +31°C° 0.2 mm 2 m/s 759 mmHg 71%
    12:00 +32°C° 0.2 mm 2 m/s 759 mmHg 64%
    13:00 +32°C° 0.2 mm 2 m/s 759 mmHg 63%
    14:00 +32°C° 0.2 mm 2 m/s 758 mmHg 63%
    15:00 +32°C° 0.2 mm 2 m/s 758 mmHg 62%
    16:00 +31°C° 0.5 mm 2 m/s 758 mmHg 70%
    17:00 +29°C° 0.5 mm 2 m/s 758 mmHg 79%
    18:00 +28°C° 0.5 mm 2 m/s 758 mmHg 87%
    19:00 +27°C° 0.4 mm 2 m/s 758 mmHg 89%
    20:00 +27°C° 0.4 mm 2 m/s 759 mmHg 91%
    21:00 +26°C° 0.4 mm 2 m/s 759 mmHg 94%
    22:00 +26°C° 0.3 mm 2 m/s 759 mmHg 94%
    23:00 +26°C° 0.3 mm 1 m/s 759 mmHg 95%

    Amanhã, 18 Dezembro, Terça-feira

    Tempo Temperatura Precipitação Vento Pressão Humidade
    00:00 +26°C° 0.3 mm 1 m/s 760 mmHg 96%
    01:00 +26°C° 0 mm 1 m/s 759 mmHg 96%
    02:00 +25°C° 0 mm 1 m/s 759 mmHg 96%
    03:00 +25°C° 0 mm 1 m/s 758 mmHg 96%
    04:00 +25°C° 0.1 mm 1 m/s 758 mmHg 96%
    05:00 +25°C° 0.1 mm 1 m/s 758 mmHg 96%
    06:00 +25°C° 0.1 mm 1 m/s 758 mmHg 97%
    07:00 +26°C° 0.3 mm 1 m/s 759 mmHg 92%
    08:00 +27°C° 0.3 mm 2 m/s 759 mmHg 87%
    09:00 +29°C° 0.3 mm 2 m/s 760 mmHg 83%
    10:00 +30°C° 0.7 mm 2 m/s 760 mmHg 79%
    11:00 +31°C° 0.7 mm 2 m/s 760 mmHg 75%
    12:00 +31°C° 0.7 mm 2 m/s 759 mmHg 71%
    13:00 +31°C° 1.5 mm 2 m/s 758 mmHg 76%
    14:00 +30°C° 1.5 mm 2 m/s 758 mmHg 80%
    15:00 +30°C° 1.5 mm 2 m/s 757 mmHg 85%
    16:00 +29°C° 1.3 mm 2 m/s 757 mmHg 88%
    17:00 +28°C° 1.3 mm 2 m/s 757 mmHg 91%
    18:00 +27°C° 1.3 mm 2 m/s 757 mmHg 94%
    19:00 +27°C° 0.6 mm 2 m/s 758 mmHg 94%
    20:00 +26°C° 0.6 mm 2 m/s 758 mmHg 94%
    21:00 +26°C° 0.6 mm 2 m/s 759 mmHg 95%
    22:00 +26°C° 0.1 mm 2 m/s 759 mmHg 95%
    23:00 +26°C° 0.1 mm 2 m/s 759 mmHg 96%

    Depois de amanhã, 19 Dezembro, Quarta-feira

    Tempo Temperatura Precipitação Vento Pressão Humidade
    00:00 +26°C° 0.1 mm 2 m/s 759 mmHg 96%
    01:00 +26°C° 0.2 mm 1 m/s 759 mmHg 96%
    02:00 +25°C° 0.2 mm 1 m/s 758 mmHg 96%
    03:00 +25°C° 0.2 mm 1 m/s 758 mmHg 97%
    04:00 +25°C° 0.1 mm 1 m/s 758 mmHg 97%
    05:00 +25°C° 0.1 mm 1 m/s 758 mmHg 97%
    06:00 +25°C° 0.1 mm 1 m/s 758 mmHg 97%
    07:00 +26°C° 0 mm 1 m/s 759 mmHg 92%
    08:00 +28°C° 0 mm 2 m/s 759 mmHg 88%
    09:00 +29°C° 0 mm 2 m/s 759 mmHg 83%
    10:00 +30°C° 0.3 mm 2 m/s 759 mmHg 78%
    11:00 +31°C° 0.3 mm 2 m/s 759 mmHg 73%
    12:00 +32°C° 0.3 mm 2 m/s 759 mmHg 68%
    13:00 +32°C° 0.7 mm 2 m/s 758 mmHg 71%
    14:00 +31°C° 0.7 mm 2 m/s 757 mmHg 74%
    15:00 +31°C° 0.7 mm 2 m/s 756 mmHg 77%
    16:00 +30°C° 0.6 mm 2 m/s 756 mmHg 82%
    17:00 +29°C° 0.6 mm 2 m/s 756 mmHg 86%
    18:00 +28°C° 0.6 mm 2 m/s 756 mmHg 91%
    19:00 +27°C° 0.1 mm 2 m/s 757 mmHg 92%
    20:00 +27°C° 0.1 mm 2 m/s 758 mmHg 93%
    21:00 +27°C° 0.1 mm 2 m/s 758 mmHg 94%
    22:00 +26°C° 0 mm 2 m/s 758 mmHg 95%
    23:00 +26°C° 0 mm 2 m/s 758 mmHg 95%

    20 Dezembro, Quinta-feira

    Tempo Temperatura Precipitação Vento Pressão Humidade
    00:00 +26°C° 0 mm 2 m/s 758 mmHg 95%
    01:00 +26°C° 0 mm 2 m/s 757 mmHg 95%
    02:00 +26°C° 0 mm 1 m/s 757 mmHg 96%
    03:00 +26°C° 0 mm 1 m/s 756 mmHg 96%
    04:00 +25°C° 0 mm 1 m/s 756 mmHg 96%
    05:00 +25°C° 0 mm 1 m/s 757 mmHg 96%
    06:00 +25°C° 0 mm 1 m/s 757 mmHg 96%
    07:00 +27°C° 0 mm 2 m/s 758 mmHg 91%
    08:00 +28°C° 0 mm 2 m/s 758 mmHg 86%
    09:00 +29°C° 0 mm 2 m/s 759 mmHg 81%
    10:00 +30°C° 0.4 mm 2 m/s 758 mmHg 78%
    11:00 +31°C° 0.4 mm 2 m/s 758 mmHg 75%
    12:00 +31°C° 0.4 mm 2 m/s 758 mmHg 72%
    13:00 +31°C° 0.7 mm 2 m/s 757 mmHg 75%
    14:00 +31°C° 0.7 mm 2 m/s 756 mmHg 79%
    15:00 +30°C° 0.7 mm 2 m/s 756 mmHg 82%
    16:00 +29°C° 0.5 mm 2 m/s 756 mmHg 85%
    17:00 +28°C° 0.5 mm 2 m/s 756 mmHg 88%
    18:00 +28°C° 0.5 mm 2 m/s 756 mmHg 92%
    19:00 +27°C° 0.2 mm 2 m/s 757 mmHg 93%
    20:00 +27°C° 0.2 mm 2 m/s 757 mmHg 94%
    21:00 +26°C° 0.2 mm 2 m/s 758 mmHg 95%
    22:00 +26°C° 0 mm 2 m/s 758 mmHg 96%
    23:00 +26°C° 0 mm 2 m/s 758 mmHg 96%

    21 Dezembro, Sexta-feira

    Tempo Temperatura Precipitação Vento Pressão Humidade
    00:00 +26°C° 0 mm 1 m/s 758 mmHg 96%
    01:00 +26°C° 0 mm 1 m/s 757 mmHg 96%
    02:00 +25°C° 0 mm 1 m/s 756 mmHg 96%
    03:00 +25°C° 0 mm 1 m/s 756 mmHg 97%
    04:00 +25°C° 0 mm 1 m/s 756 mmHg 97%
    05:00 +25°C° 0 mm 1 m/s 757 mmHg 97%
    06:00 +25°C° 0 mm 1 m/s 757 mmHg 97%
    07:00 +26°C° 0 mm 1 m/s 757 mmHg 93%
    08:00 +28°C° 0 mm 2 m/s 758 mmHg 88%
    09:00 +29°C° 0 mm 2 m/s 758 mmHg 84%
    10:00 +30°C° 0.2 mm 2 m/s 758 mmHg 78%
    11:00 +31°C° 0.2 mm 2 m/s 757 mmHg 71%
    12:00 +34°C° 0.2 mm 2 m/s 757 mmHg 65%
    13:00 +32°C° 0.5 mm 2 m/s 756 mmHg 68%
    14:00 +32°C° 0.5 mm 2 m/s 756 mmHg 70%
    15:00 +31°C° 0.5 mm 2 m/s 755 mmHg 73%
    16:00 +30°C° 0.4 mm 2 m/s 755 mmHg 78%
    17:00 +29°C° 0.4 mm 2 m/s 755 mmHg 84%
    18:00 +28°C° 0.4 mm 2 m/s 756 mmHg 89%
    19:00 +27°C° 1 mm 2 m/s 756 mmHg 91%
    20:00 +27°C° 1 mm 2 m/s 757 mmHg 93%
    21:00 +26°C° 1 mm 2 m/s 757 mmHg 95%
    22:00 +26°C° 1.3 mm 2 m/s 757 mmHg 95%
    23:00 +26°C° 1.3 mm 2 m/s 757 mmHg 95%

    22 Dezembro, Sábado

    Tempo Temperatura Precipitação Vento Pressão Humidade
    00:00 +26°C° 1.3 mm 2 m/s 757 mmHg 95%
    01:00 +26°C° 0.6 mm 2 m/s 757 mmHg 96%
    02:00 +26°C° 0.6 mm 2 m/s 756 mmHg 96%
    03:00 +25°C° 0.6 mm 2 m/s 756 mmHg 97%
    04:00 +25°C° 0.3 mm 1 m/s 756 mmHg 97%
    05:00 +25°C° 0.3 mm 1 m/s 756 mmHg 97%
    06:00 +25°C° 0.3 mm 1 m/s 757 mmHg 97%
    07:00 +26°C° 0.4 mm 1 m/s 757 mmHg 95%
    08:00 +27°C° 0.4 mm 2 m/s 758 mmHg 92%
    09:00 +28°C° 0.4 mm 2 m/s 758 mmHg 90%
    10:00 +29°C° 0.8 mm 2 m/s 758 mmHg 87%
    11:00 +29°C° 0.8 mm 2 m/s 757 mmHg 84%
    12:00 +30°C° 0.8 mm 2 m/s 757 mmHg 80%
    13:00 +30°C° 1 mm 2 m/s 757 mmHg 81%
    14:00 +30°C° 1 mm 2 m/s 756 mmHg 82%
    15:00 +30°C° 1 mm 2 m/s 755 mmHg 83%
    16:00 +29°C° 2.3 mm 2 m/s 756 mmHg 87%
    17:00 +28°C° 2.3 mm 2 m/s 756 mmHg 90%
    18:00 +27°C° 2.3 mm 2 m/s 756 mmHg 93%
    19:00 +26°C° 1.5 mm 2 m/s 757 mmHg 94%
    20:00 +26°C° 1.5 mm 2 m/s 757 mmHg 94%
    21:00 +26°C° 1.5 mm 2 m/s 758 mmHg 95%
    22:00 +26°C° 0.7 mm 2 m/s 758 mmHg 95%
    23:00 +26°C° 0.7 mm 2 m/s 758 mmHg 96%
    Mostrar mais